Regional Weather Roundup
Issued by NWS

Home | Current Version | Previous Version | Graphics & Text | Print | Product List | Glossary On
Versions: 1 2 3 4 5 6 7 8 9 10 11 12 13 14 15 16 17 18 19 20 21 22 23 24 25 26 27 28 29
000
ASUS45 KBOU 300407
RWRCO

WEATHER ROUNDUP FOR COLORADO
NATIONAL WEATHER SERVICE DENVER/BOULDER CO
1000 PM MDT WED OCT 29 2014

NOTE: "FAIR" INDICATES FEW OR NO CLOUDS BELOW 12000 FEET WITH NO
SIGNIFICANT WEATHER AND/OR OBSTRUCTIONS TO VISIBILITY.

COZ001>005-013-030-031-300500-
...NORTHWEST COLORADO...

CITY           SKY/WX    TMP DP  RH WIND       PRES   REMARKS
CRAIG          CLEAR     34  23  64 CALM      30.32R
HAYDEN         CLEAR     37  19  48 SE8       30.33R
MEEKER         CLEAR     35  24  64 NE5       30.34R WCI  31
MOUNT WERNER   NOT AVBL
STEAMBOAT SPGS CLEAR     40  22  48 CALM      30.33R
WALDEN         MOCLDY    37  19  48 SW6       30.33S
$$

COZ006>008-011-300500-
...WEST CENTRAL VALLEYS...

CITY           SKY/WX    TMP DP  RH WIND       PRES   REMARKS
GRAND JUNCTION CLEAR     38  19  46 E5        30.28R
MONTROSE       PTCLDY    40  23  50 SE9       30.34S
EAGLE          CLEAR     39  19  45 E5        30.37R
RIFLE          CLEAR     44  20  38 NE3       30.31R
DELTA          PTCLDY    45  19  35 CALM      30.31R
NUCLA          PTCLDY    45  18  33 E13       30.35S
$$

COZ017>023-064>068-300500-
...SOUTHWEST COLORADO...

CITY           SKY/WX    TMP DP  RH WIND       PRES   REMARKS
DURANGO        CLEAR     41  21  44 N7        30.31R
CORTEZ         CLEAR     37  14  38 NE7       30.32R
PAGOSA SPRINGS CLEAR     38  20  48 NE3       30.36S
TELLURIDE      CLEAR     39  13  34 SE5       30.47R
WOLF CREEK PAS NOT AVBL
$$

COZ009-010-012-014-032>034-037-058>063-300500-
...CENTRAL COLORADO...

CITY           SKY/WX    TMP DP  RH WIND       PRES   REMARKS
ASPEN          CLEAR     36  18  48 S8        30.39R
BUENA VISTA    CLEAR     48  10  21 N14       30.32S
COPPER MTN     CLEAR     30  18  59 W13G18    30.51S WCI  20
BERTHOUD PASS  FAIR      27  23  86 W35G51    30.45F WCI   9
COTTONWOOD PAS CLEAR     45   3  18 W9G18     30.39R
GUNNISON       CLEAR     37   9  30 NW7       30.40R
KREMMLING      PTCLDY    34  21  60 NW3         N/A
LEADVILLE      CLEAR     36  10  34 N9        30.43S
MONARCH PASS   CLEAR     32   7  34 W35       30.59R WCI  17
SALIDA         CLEAR     51   7  16 CALM      30.38R
SUNLIGHT       CLEAR     36  18  48 CALM      30.51R
WILKERSON PASS NOT AVBL
$$

COZ069>075-300500-
...SAN LUIS VALLEY/SANGRE DE CRISTO MOUNTAINS...

CITY           SKY/WX    TMP DP  RH WIND       PRES   REMARKS
ALAMOSA        PTCLDY    36  15  42 N9        30.32R
LA VETA PASS   NOT AVBL
SAGUACHE       CLEAR     43  12  28 NW9       30.36R
$$

COZ035-036-038>040-300500-
...NORTHERN COLORADO FRONT RANGE...

CITY           SKY/WX    TMP DP  RH WIND       PRES   REMARKS
DENVER INTL AP PTCLDY    51  20  29 E6        30.18R
DMNS CITY PARK   N/A     57  19  23 SE6       30.18R
AURORA         MOCLDY    49  20  31 SE8       30.20R
FRONT RANGE AP CLEAR     55  21  26 CALM      30.19R
ERIE MUNI ARPT PTCLDY    46  22  38 E7        30.17R
BOULDER MUN AP PTCLDY    54  23  30 NW6       30.17R
CENTENNIAL     MOCLDY    51  22  31 S3        30.20R
BROOMFIELD     PTCLDY    59  18  20 CALM      30.19R
FORT COLLINS   CLEAR     54  25  32 N16G23    30.17R
LONGMONT       CLEAR     52  26  36 SE3       30.18R
$$

COZ041-046-047-076>085-087-088-300500-
...PIKES PEAK/PALMER DIVIDE AND SOUTHERN FOOTHILLS...

CITY           SKY/WX    TMP DP  RH WIND       PRES   REMARKS
COLO. SPRINGS  PTCLDY    45  20  36 N10       30.23R
A. F. ACADEMY  CLEAR     38  18  43 N10       30.24R
ELLICOTT       CLEAR     42  17  36 NE5       30.20R
FALCON         CLEAR     47  17  29 N7        30.26S
FORT CARSON    PTCLDY    44  19  37 NW7       30.20R
LIMON          CLEAR     41  18  39 NW3       30.20R
MONUMENT HILL  PTCLDY    37  19  48 SE6       30.25R
TRINIDAD       CLEAR     48  16  27 NW13      30.17R
$$

COZ042>045-048>051-090-091-300500-
...NORTHEAST COLORADO...

CITY           SKY/WX    TMP DP  RH WIND       PRES   REMARKS
GREELEY ARPT   CLEAR     48  23  37 NE7       30.17R
AKRON          CLEAR     53  24  32 N15       30.14R
BURLINGTON     CLEAR     48  22  35 NW8       30.14R
WRAY           CLEAR     53  23  31 NW12      30.09R
STERLING       CLEAR     52  30  43 N9        30.12R
HOLYOKE        CLEAR     48  27  43 N12       30.11R
FORT MORGAN    MOCLDY    53  23  31 NW14      30.16R
$$

COZ086-089-092>099-300500-
...SOUTHEAST COLORADO...

CITY           SKY/WX    TMP DP  RH WIND       PRES   REMARKS
PUEBLO         CLEAR     46  19  34 W8        30.16R
LA JUNTA       CLEAR     48  22  35 N7        30.11R
LAMAR          CLEAR     38  24  57 SW3       30.08R
SPRINGFIELD      N/A     44  31  60 CALM      30.10R
$$



USA.gov is the U.S. government's official web portal to all federal, state and local government web resources and services.